Wahoo, NE

3:02 PM CDT on July 20, 2017 (GMT -0500)
Wahoo Municipal

Weather History for KAHQ - February, 2014

Change the Weather History Date:

Thursday, February 20, 2014

  Actual Average Record
Temperature  
Mean Temperature 34 °F -  
Max Temperature 41 °F 41 °F 68 °F (1981)
Min Temperature 25 °F 20 °F 3 °F (1966)
Degree Days  
Heating Degree Days 32    
Moisture  
Dew Point 24 °F    
Average Humidity 68    
Maximum Humidity 92    
Minimum Humidity 56    
Precipitation  
Precipitation 0.02 in - - ()
Sea Level Pressure  
Sea Level Pressure 29.63 in    
Wind  
Wind Speed 15 mph (NW)    
Max Wind Speed 32 mph    
Max Gust Speed 46 mph    
Visibility 9 miles    
Events Snow    
Averages and records for this station are not official NWS values.
T = Trace of Precipitation, MM = Missing Value Source: NWS Daily Summary

Daily Weather History Graph

Daily Weather History Graph

Search for Another Location

Airport or City:

Trip Planner

Search our weather history database for the weather conditions in past years. The results will help you decide how hot, cold, wet, or windy it might be!

Date:

Astronomy

Feb. 20, 2014 Rise Set
Actual Time 7:14 AM CST 6:06 PM CST
Civil Twilight 6:46 AM CST 6:34 PM CST
Nautical Twilight 6:13 AM CST 7:06 PM CST
Astronomical Twilight 5:42 AM CST 7:38 PM CST
Moon No Moon Rise 9:54 AM CST
Length of Visible Light 11h 48m
Length of Day
10h 52m
Waning Gibbous, 70% of the Moon is Illuminated
Feb 20
Waning Gibbous
Feb 22
Last Quarter
Mar 1
New
Mar 8
First Quarter
Mar 16
Full

Hourly Weather History & Observations

Time (CST) Temp. Windchill Dew Point Humidity Pressure Visibility Wind Dir Wind Speed Gust Speed Precip Events Conditions
12:15 AM 40.3 °F 36.3 °F 28.8 °F 63% 29.57 in 10.0 mi SSE 5.8 mph - N/A   Overcast
12:35 AM 39.6 °F 34.0 °F 28.6 °F 65% 29.56 in 10.0 mi SE 8.1 mph - N/A   Overcast
12:55 AM 41.0 °F 35.8 °F 29.3 °F 63% 29.56 in 10.0 mi SE 8.1 mph - N/A   Overcast
1:15 AM 41.0 °F 35.2 °F 31.1 °F 68% 29.56 in 10.0 mi SE 9.2 mph - N/A   Overcast
1:35 AM 40.1 °F 36.1 °F 30.9 °F 70% 29.56 in 10.0 mi SE 5.8 mph - N/A   Overcast
1:55 AM 39.6 °F 35.4 °F 30.9 °F 71% 29.56 in 10.0 mi SE 5.8 mph - N/A   Mostly Cloudy
2:35 AM 33.4 °F - 27.1 °F 78% 29.56 in 10.0 mi Calm Calm - N/A   Overcast
2:55 AM 36.5 °F 33.9 °F 29.8 °F 77% 29.55 in 10.0 mi East 3.5 mph - N/A   Overcast
3:15 AM 34.5 °F 31.6 °F 28.2 °F 78% 29.56 in 10.0 mi NNW 3.5 mph - N/A   Overcast
3:55 AM 36.5 °F 29.7 °F 28.4 °F 72% 29.56 in 10.0 mi NNW 9.2 mph - N/A   Overcast
4:35 AM 36.7 °F 29.4 °F 27.7 °F 70% 29.54 in 10.0 mi NNW 10.4 mph - N/A   Overcast
4:55 AM 36.5 °F 26.0 °F 27.5 °F 70% 29.48 in 10.0 mi NNW 19.6 mph - N/A   Overcast
5:15 AM 37.4 °F 28.5 °F 28.0 °F 69% 29.54 in 10.0 mi NNW 15.0 mph 23.0 mph N/A   Overcast
5:35 AM 37.6 °F 27.1 °F 28.8 °F 70% 29.53 in 10.0 mi North 20.7 mph 26.5 mph N/A   Overcast
5:55 AM 37.9 °F 27.6 °F 28.9 °F 70% 29.53 in 10.0 mi North 20.7 mph 27.6 mph N/A   Overcast
6:15 AM 37.8 °F 27.7 °F 29.1 °F 71% 29.53 in 10.0 mi North 19.6 mph 27.6 mph N/A   Overcast
6:55 AM 38.3 °F 28.1 °F 28.4 °F 68% 29.54 in 10.0 mi North 20.7 mph 35.7 mph N/A   Overcast
7:35 AM 35.4 °F 23.5 °F 30.7 °F 83% 29.53 in 5.0 mi North 24.2 mph 34.5 mph N/A Snow Light Snow
7:55 AM 33.3 °F 20.6 °F 30.7 °F 90% 29.52 in 0.5 mi NNW 24.2 mph 31.1 mph N/A Snow Snow
8:15 AM 33.1 °F 21.2 °F 31.1 °F 92% 29.53 in 0.2 mi NNW 20.7 mph 28.8 mph N/A Snow Snow
8:35 AM 33.1 °F 21.2 °F 31.1 °F 92% 29.56 in 0.8 mi NW 20.7 mph 31.1 mph N/A Snow Light Snow
8:55 AM 33.1 °F 21.2 °F 31.1 °F 92% 29.55 in 0.8 mi NNW 20.7 mph 31.1 mph 0.02 in Snow Light Snow
9:35 AM 33.3 °F 21.2 °F 31.1 °F 92% 29.57 in 0.5 mi NNW 21.9 mph 32.2 mph N/A Snow Snow
1:15 PM 35.8 °F 27.8 °F 31.1 °F 83% 29.55 in 10.0 mi NW 11.5 mph - N/A   Clear
1:55 PM 39.2 °F 29.0 °F 28.4 °F 65% 29.55 in 10.0 mi NW 21.9 mph 27.6 mph N/A   Scattered Clouds
2:35 PM 39.6 °F 28.7 °F 25.7 °F 58% 29.57 in 10.0 mi WNW 25.3 mph 33.4 mph N/A   Overcast
5:15 PM 34.2 °F 21.8 °F 22.1 °F 61% 29.68 in 10.0 mi WNW 24.2 mph 35.7 mph N/A   Mostly Cloudy
5:35 PM 33.4 °F 20.3 °F 21.4 °F 61% 29.69 in 10.0 mi WNW 26.5 mph 36.8 mph N/A   Overcast
5:55 PM 32.2 °F 17.9 °F 19.9 °F 61% 29.70 in 10.0 mi NW 29.9 mph 35.7 mph N/A   Overcast
6:15 PM 31.6 °F 17.4 °F 18.5 °F 58% 29.71 in 10.0 mi WNW 28.8 mph 43.7 mph N/A   Overcast
6:35 PM 30.6 °F 16.4 °F 18.3 °F 60% 29.73 in 10.0 mi WNW 26.5 mph 41.4 mph N/A   Overcast
6:55 PM 30.0 °F 15.4 °F 18.0 °F 61% 29.74 in 10.0 mi WNW 27.6 mph 36.8 mph N/A   Overcast
7:15 PM 30.0 °F 16.3 °F 17.8 °F 60% 29.74 in 10.0 mi NW 24.2 mph 35.7 mph N/A   Overcast
7:35 PM 30.0 °F 16.3 °F 18.0 °F 61% 29.75 in 10.0 mi WNW 24.2 mph 31.1 mph N/A   Overcast
7:55 PM 30.0 °F 16.9 °F 17.8 °F 60% 29.75 in 10.0 mi WNW 21.9 mph 28.8 mph N/A   Overcast
8:15 PM 30.0 °F 16.3 °F 18.0 °F 61% 29.75 in 10.0 mi NW 24.2 mph 32.2 mph N/A   Overcast
8:35 PM 30.2 °F 14.7 °F 16.7 °F 57% 29.75 in 10.0 mi WNW 32.2 mph 46.0 mph N/A   Overcast
8:55 PM 29.7 °F 14.2 °F 15.8 °F 56% 29.75 in 10.0 mi NW 31.1 mph 41.4 mph N/A   Overcast
9:15 PM 28.8 °F 13.0 °F 15.4 °F 58% 29.75 in 10.0 mi NW 31.1 mph 36.8 mph N/A   Overcast
9:35 PM 28.0 °F 13.0 °F 15.3 °F 59% 29.75 in 10.0 mi NW 26.5 mph 32.2 mph N/A   Scattered Clouds
9:55 PM 27.5 °F 13.5 °F 15.3 °F 60% 29.76 in 10.0 mi NW 21.9 mph 29.9 mph N/A   Clear
10:15 PM 27.1 °F 13.4 °F 15.6 °F 62% 29.76 in 10.0 mi WNW 20.7 mph 25.3 mph N/A   Clear
10:35 PM 27.0 °F 13.5 °F 15.3 °F 61% 29.76 in 10.0 mi WNW 19.6 mph 25.3 mph N/A   Clear
10:55 PM 26.6 °F 13.4 °F 15.1 °F 62% 29.76 in 10.0 mi WNW 18.4 mph - N/A   Clear
11:15 PM 26.4 °F 13.6 °F 15.4 °F 63% 29.77 in 10.0 mi WNW 17.3 mph 26.5 mph N/A   Clear
11:35 PM 26.1 °F 12.7 °F 15.1 °F 63% 29.76 in 10.0 mi WNW 18.4 mph 24.2 mph N/A   Clear
11:55 PM 25.7 °F 13.1 °F 15.1 °F 64% 29.77 in 10.0 mi WNW 16.1 mph 24.2 mph N/A   Clear